FENGYUN 1C DEB, 30071

Orbit data source: Space-Track

FENGYUN 1C DEB, 30071 is space debris in SSO originally from a launch on Mon, 10 May 1999 UTC launched from the Taiyaun Space Center, China (TSC). Fengyun 1C debris stems from the Chinese weather satellite Fengyun-1C, which was intentionally destroyed by a Chinese anti-satellite missile in 2007. This event dramatically increased the amount of space debris, with thousands of trackable fragments posing hazards to satellites and human spaceflight. The Fengyun 1C debris cloud has become a focal point in discussions about space sustainability and the need for international regulations to prevent the creation of new debris.

Loading next visibility...
Identifier
30071, 1999-025PY
Orbit
SSO
Country
Flag of CNCN / PRC
Related business
Manufacturer
Unknown
Mission
Spacecraft
Bus & Motor
Unknown
Mass
Unknown
Launch date (UTC)
1999-05-10 (26 years ago)
Launch vehicle
Unknown
Launch site
Taiyaun Space Center, China (TSC)
Object type
Payload
Rocket body
Debris
Shape & HBR
Unknown shape, 0.1 m
Radar Cross Section
Small (<0.1 m²)

Expand to show TLE details & history
Last TLE update: 12 hours ago

TLE from 12 hours ago
0 FENGYUN 1C DEB
1 30071U 99025PY  25302.51166924  .00012585  00000-0  31719-2 0  9996
2 30071  98.6583  40.4538 0040866 240.1597 134.9079 14.50744822975852
Epoch: 2025-10-29T12:16Z
TLE epoch observation values (Epoch: 2025-10-29T12:16:48.222Z)
Latitude
15.19452°
Longitude
175.81153°
Altitude
746.024 km
Speed
7.472 km/s
True Right ascension
02h 32m 23s
True Declination
15° 06' 27"
Sunlit
Object was in full shadow at epoch
Visualization orbit readout
Latitude
Unknown
Longitude
Unknown
Altitude
Unknown
Speed
Unknown
Apparent Right ascension
Unknown
Apparent Declination
Unknown
Sunlit
N/A
Visualization observer readout
Local Sidereal Time
20:06:01
Azimuth
Unknown
Elevation
Unknown
Doppler factor
Unknown
Orbital elements
Apogee altitude
749.341 km
Perigee altitude
691.323 km
Semi-major axis
7,098.469 km
Eccentricity
0.00409
Inclination
98.6583°
RAAN
40.4538°
Arg. of periapsis
240.1597°
True anomaly
135.23837°
Mean anomaly
134.9079°
Eccentric anomaly
135.07325°
Mean motion
3.62908 °/min
Orbital period
99.2 mins
BSTAR
0.0031719
Loading maneuver chart data...
Computing Atmospheric mass density...

Documentation

Showing up to 5 results
|